• In Sweden
  • List of Countries
  • For 7 days
  • Water Temperature
  • Satellite Maps
  • Weather Map
  • Weather Widgets
  • user-avatar
    Login

    Hourly Weather Volshnica

    Today, 23 May, Wednesday

    Time Temperature Precipitation Wind Pressure Humidity
    00:00 +12°C° 0 mm 2 mps 750 mmHg 91%
    01:00 +10°C° 0 mm 2 mps 749 mmHg 94%
    02:00 +10°C° 0 mm 2 mps 749 mmHg 97%
    03:00 +10°C° 0 mm 2 mps 749 mmHg 95%
    04:00 +12°C° 0 mm 2 mps 749 mmHg 94%
    05:00 +12°C° 0 mm 2 mps 749 mmHg 93%
    06:00 +14°C° 0 mm 2 mps 749 mmHg 86%
    07:00 +15°C° 0 mm 2 mps 749 mmHg 79%
    08:00 +17°C° 0 mm 3 mps 749 mmHg 71%
    09:00 +18°C° 0.1 mm 3 mps 749 mmHg 67%
    10:00 +19°C° 0.1 mm 3 mps 749 mmHg 63%
    11:00 +20°C° 0.1 mm 4 mps 749 mmHg 59%
    12:00 +20°C° 0.1 mm 4 mps 749 mmHg 57%
    13:00 +21°C° 0.1 mm 4 mps 749 mmHg 54%
    14:00 +21°C° 0.1 mm 4 mps 748 mmHg 52%
    15:00 +21°C° 0 mm 3 mps 748 mmHg 54%
    16:00 +20°C° 0 mm 3 mps 748 mmHg 55%
    17:00 +20°C° 0 mm 2 mps 748 mmHg 57%
    18:00 +18°C° 0 mm 2 mps 748 mmHg 64%
    19:00 +16°C° 0 mm 1 mps 748 mmHg 72%
    20:00 +14°C° 0 mm 1 mps 748 mmHg 79%
    21:00 +14°C° 0 mm 1 mps 748 mmHg 82%
    22:00 +13°C° 0 mm 1 mps 748 mmHg 85%
    23:00 +12°C° 0 mm 1 mps 749 mmHg 87%

    Tomorrow, 24 May, Thursday

    Time Temperature Precipitation Wind Pressure Humidity
    00:00 +12°C° 0 mm 1 mps 749 mmHg 88%
    01:00 +11°C° 0 mm 1 mps 749 mmHg 90%
    02:00 +11°C° 0 mm 1 mps 749 mmHg 91%
    03:00 +12°C° 0 mm 1 mps 748 mmHg 88%
    04:00 +12°C° 0 mm 1 mps 748 mmHg 86%
    05:00 +13°C° 0 mm 1 mps 748 mmHg 84%
    06:00 +15°C° 0 mm 1 mps 748 mmHg 76%
    07:00 +18°C° 0 mm 1 mps 749 mmHg 69%
    08:00 +20°C° 0 mm 1 mps 749 mmHg 61%
    09:00 +20°C° 0 mm 2 mps 749 mmHg 58%
    10:00 +21°C° 0 mm 2 mps 749 mmHg 54%
    11:00 +23°C° 0 mm 2 mps 749 mmHg 50%
    12:00 +22°C° 0.2 mm 3 mps 749 mmHg 52%
    13:00 +22°C° 0.2 mm 3 mps 749 mmHg 54%
    14:00 +22°C° 0.2 mm 3 mps 749 mmHg 55%
    15:00 +21°C° 0.2 mm 4 mps 749 mmHg 59%
    16:00 +20°C° 0.2 mm 4 mps 749 mmHg 62%
    17:00 +20°C° 0.2 mm 4 mps 749 mmHg 65%
    18:00 +18°C° 0 mm 3 mps 749 mmHg 68%
    19:00 +16°C° 0 mm 3 mps 750 mmHg 70%
    20:00 +13°C° 0 mm 3 mps 750 mmHg 73%
    21:00 +12°C° 0 mm 3 mps 750 mmHg 70%
    22:00 +11°C° 0 mm 3 mps 751 mmHg 67%
    23:00 +10°C° 0 mm 3 mps 751 mmHg 64%

    Day after tomorrow, 25 May, Friday

    Time Temperature Precipitation Wind Pressure Humidity
    00:00 +9°C° 0 mm 3 mps 752 mmHg 65%
    01:00 +8°C° 0 mm 2 mps 752 mmHg 66%
    02:00 +7°C° 0 mm 2 mps 752 mmHg 66%
    03:00 +8°C° 0 mm 2 mps 753 mmHg 65%
    04:00 +8°C° 0 mm 2 mps 753 mmHg 64%
    05:00 +8°C° 0 mm 3 mps 753 mmHg 64%
    06:00 +10°C° 0 mm 3 mps 754 mmHg 57%
    07:00 +12°C° 0 mm 3 mps 754 mmHg 50%
    08:00 +13°C° 0 mm 3 mps 755 mmHg 43%
    09:00 +14°C° 0 mm 3 mps 755 mmHg 41%
    10:00 +16°C° 0 mm 3 mps 755 mmHg 39%
    11:00 +17°C° 0 mm 4 mps 755 mmHg 37%
    12:00 +18°C° 0 mm 3 mps 755 mmHg 37%
    13:00 +18°C° 0 mm 3 mps 755 mmHg 37%
    14:00 +19°C° 0 mm 3 mps 755 mmHg 37%
    15:00 +19°C° 0 mm 2 mps 755 mmHg 38%
    16:00 +18°C° 0 mm 2 mps 755 mmHg 40%
    17:00 +19°C° 0 mm 1 mps 755 mmHg 41%
    18:00 +16°C° 0 mm 1 mps 755 mmHg 48%
    19:00 +14°C° 0 mm 1 mps 755 mmHg 55%
    20:00 +13°C° 0 mm 1 mps 755 mmHg 62%
    21:00 +12°C° 0 mm 2 mps 755 mmHg 64%
    22:00 +10°C° 0 mm 2 mps 756 mmHg 66%
    23:00 +9°C° 0 mm 2 mps 756 mmHg 67%

    26 May, Saturday

    Time Temperature Precipitation Wind Pressure Humidity
    00:00 +9°C° 0 mm 2 mps 756 mmHg 69%
    01:00 +9°C° 0 mm 2 mps 756 mmHg 70%
    02:00 +8°C° 0 mm 2 mps 757 mmHg 71%
    03:00 +9°C° 0 mm 2 mps 757 mmHg 71%
    04:00 +10°C° 0 mm 2 mps 757 mmHg 70%
    05:00 +10°C° 0 mm 2 mps 757 mmHg 69%
    06:00 +12°C° 0 mm 3 mps 757 mmHg 63%
    07:00 +16°C° 0 mm 3 mps 757 mmHg 58%
    08:00 +18°C° 0 mm 3 mps 758 mmHg 53%
    09:00 +19°C° 0 mm 3 mps 758 mmHg 48%
    10:00 +21°C° 0 mm 3 mps 757 mmHg 44%
    11:00 +22°C° 0 mm 3 mps 757 mmHg 40%
    12:00 +22°C° 0 mm 3 mps 757 mmHg 40%
    13:00 +24°C° 0 mm 3 mps 757 mmHg 39%
    14:00 +24°C° 0 mm 3 mps 756 mmHg 39%
    15:00 +24°C° 0 mm 3 mps 756 mmHg 42%
    16:00 +24°C° 0 mm 3 mps 756 mmHg 45%
    17:00 +24°C° 0 mm 2 mps 756 mmHg 49%
    18:00 +20°C° 0 mm 2 mps 756 mmHg 56%
    19:00 +18°C° 0 mm 2 mps 755 mmHg 63%
    20:00 +16°C° 0 mm 2 mps 755 mmHg 70%
    21:00 +15°C° 0 mm 2 mps 755 mmHg 71%
    22:00 +14°C° 0 mm 2 mps 755 mmHg 73%
    23:00 +14°C° 0 mm 2 mps 755 mmHg 74%

    27 May, Sunday

    Time Temperature Precipitation Wind Pressure Humidity
    00:00 +13°C° 0 mm 2 mps 755 mmHg 76%
    01:00 +13°C° 0 mm 2 mps 755 mmHg 77%
    02:00 +12°C° 0 mm 2 mps 755 mmHg 78%
    03:00 +12°C° 0 mm 3 mps 755 mmHg 76%
    04:00 +12°C° 0 mm 3 mps 755 mmHg 75%
    05:00 +13°C° 0 mm 3 mps 755 mmHg 73%
    06:00 +16°C° 0 mm 3 mps 755 mmHg 68%
    07:00 +18°C° 0 mm 4 mps 754 mmHg 64%
    08:00 +19°C° 0 mm 4 mps 754 mmHg 60%
    09:00 +21°C° 0 mm 4 mps 754 mmHg 55%
    10:00 +22°C° 0 mm 5 mps 754 mmHg 51%
    11:00 +23°C° 0 mm 5 mps 753 mmHg 47%
    12:00 +25°C° 0 mm 5 mps 753 mmHg 45%
    13:00 +25°C° 0 mm 5 mps 752 mmHg 44%
    14:00 +25°C° 0 mm 5 mps 751 mmHg 43%
    15:00 +25°C° 0 mm 5 mps 751 mmHg 47%
    16:00 +23°C° 0 mm 4 mps 751 mmHg 50%
    17:00 +23°C° 0 mm 4 mps 750 mmHg 54%
    18:00 +21°C° 0 mm 3 mps 750 mmHg 59%
    19:00 +20°C° 0 mm 3 mps 750 mmHg 65%
    20:00 +18°C° 0 mm 3 mps 750 mmHg 71%
    21:00 +17°C° 0 mm 3 mps 750 mmHg 75%
    22:00 +16°C° 0 mm 3 mps 750 mmHg 79%
    23:00 +14°C° 0 mm 3 mps 750 mmHg 83%

    28 May, Monday

    Time Temperature Precipitation Wind Pressure Humidity
    00:00 +14°C° 0 mm 2 mps 750 mmHg 86%
    01:00 +13°C° 0 mm 2 mps 750 mmHg 89%
    02:00 +12°C° 0 mm 2 mps 751 mmHg 91%
    03:00 +12°C° 0 mm 2 mps 751 mmHg 89%
    04:00 +13°C° 0 mm 2 mps 751 mmHg 86%
    05:00 +13°C° 0 mm 2 mps 751 mmHg 83%
    06:00 +15°C° 0 mm 2 mps 751 mmHg 73%
    07:00 +16°C° 0 mm 2 mps 751 mmHg 62%
    08:00 +18°C° 0 mm 2 mps 751 mmHg 52%
    09:00 +19°C° 0 mm 2 mps 751 mmHg 48%
    10:00 +20°C° 0 mm 3 mps 750 mmHg 44%
    11:00 +21°C° 0 mm 3 mps 750 mmHg 40%
    12:00 +21°C° 0 mm 3 mps 749 mmHg 40%
    13:00 +21°C° 0 mm 4 mps 749 mmHg 41%
    14:00 +22°C° 0 mm 4 mps 749 mmHg 41%
    15:00 +20°C° 0 mm 4 mps 749 mmHg 46%
    16:00 +19°C° 0 mm 4 mps 749 mmHg 50%
    17:00 +18°C° 0 mm 4 mps 749 mmHg 55%
    18:00 +15°C° 0 mm 4 mps 749 mmHg 59%
    19:00 +14°C° 0 mm 3 mps 749 mmHg 64%
    20:00 +14°C° 0 mm 2 mps 750 mmHg 69%
    21:00 +12°C° 0 mm 2 mps 750 mmHg 72%
    22:00 +10°C° 0 mm 2 mps 750 mmHg 75%
    23:00 +9°C° 0 mm 2 mps 751 mmHg 77%
    Show more